This is the latest recevied weather packets stored in our database for station/object KD8FRE. If no packets are shown the sender has not sent any weather packets the latest 10 day(s).
| Time | Temp. | Humidity | Pressure | Rain* | Wind** | Luminosity | Snow |
|---|---|---|---|---|---|---|---|
| 1777215540 | 12.22° C | 59% | 1021.9 hPa | 0 mm | - | 279 W/m² | - |
| 1777215235 | 12.22° C | 60% | 1021.8 hPa | 0 mm | - | 81 W/m² | - |
| 1777214931 | 12.22° C | 61% | 1021.8 hPa | 0 mm | - | 265 W/m² | - |
| 1777214630 | 12.22° C | 60% | 1021.8 hPa | 0 mm | - | 67 W/m² | - |
| 1777214326 | 12.22° C | 61% | 1021.7 hPa | 0 mm | - | 190 W/m² | - |
| 1777214024 | 12.22° C | 62% | 1021.6 hPa | 0 mm | - | 259 W/m² | - |
| 1777213719 | 11.67° C | 61% | 1021.8 hPa | 0 mm | - | 199 W/m² | - |
| 1777213416 | 11.11° C | 63% | 1021.5 hPa | 0 mm | - | 141 W/m² | - |
| 1777213114 | 11.67° C | 60% | 1021.7 hPa | 0 mm | - | 343 W/m² | - |
| 1777212811 | 11.67° C | 62% | 1021.6 hPa | 0 mm | - | 63 W/m² | - |
| 1777212507 | 11.67° C | 63% | 1021.9 hPa | 0 mm | - | 433 W/m² | - |
| 1777212206 | 11.11° C | 65% | 1021.7 hPa | 0 mm | - | 245 W/m² | - |
| 1777211901 | 11.67° C | 64% | 1021.6 hPa | 0 mm | - | 376 W/m² | - |
| 1777211599 | 11.11° C | 65% | 1021.5 hPa | 0 mm | - | 379 W/m² | - |
| 1777211297 | 11.11° C | 66% | 1021.4 hPa | 0 mm | - | 351 W/m² | - |
| 1777210992 | 11.11° C | 67% | 1021.4 hPa | 0 mm | - | 301 W/m² | - |
| 1777210688 | 11.11° C | 66% | 1021.2 hPa | 0 mm | - | 236 W/m² | - |
| 1777210384 | 10.56° C | 67% | 1021.4 hPa | 0 mm | - | 223 W/m² | - |
| 1777210081 | 10.56° C | 70% | 1021.3 hPa | 0 mm | - | 295 W/m² | - |
| 1777209776 | 10.56° C | 69% | 1021.3 hPa | 0 mm | - | 253 W/m² | - |
| 1777209471 | 10.56° C | 71% | 1021.4 hPa | 0 mm | - | 271 W/m² | - |
| 1777209168 | 10° C | 73% | 1021.3 hPa | 0 mm | - | 222 W/m² | - |
| 1777208864 | 9.44° C | 73% | 1021.5 hPa | 0 mm | - | 230 W/m² | - |
| 1777208561 | 9.44° C | 77% | 1021.4 hPa | 0 mm | - | 147 W/m² | - |
| 1777208257 | 9.44° C | 78% | 1021.3 hPa | 0 mm | - | 152 W/m² | - |
* Rain latest hour (hover to see other rain measurements)
** Current wind speed in m/s (hover to see current wind gust speed)